STARLINK-11437, 62884

Orbit data source: Space-Track

STARLINK-11437, 62884 is a payload satellite owned by SpaceX/Seattle (US) in LEO that was launched on Tue, 04 Feb 2025 UTC via an FALCON 9 launch vehicle from the Air Force Eastern Test Range (AFETR). Payload-class satellites include a variety of spacecraft equipped with specific instruments for various scientific and technological missions. These include communications satellites like Starlink; space stations such as the ISS; scientific satellites like the Hubble; Earth observation satellites from companies like Planet Labs, Umbra, and HawkEye 360; GPS; miniature CubeSats for education and research; and military/defense satellites.

Loading next visibility...
Identifier
62884, 2025-024F
Orbit
LEO
Country
Flag of USUS
Related business
Manufacturer
SpaceX/Seattle
Mission
Operational Commercial Communications
Bus & Motor
STARLINK V2MD, Unknown motor
Mass
960 kg wet, ~910 kg dry
Launch date (UTC)
2025-02-04 (9 months ago)
Launch vehicle
FALCON 9
Launch site
Air Force Eastern Test Range (AFETR)
Object type
Payload
Rocket body
Debris
Shape & HBR
Box + 2 Pan, 18.1 m
Radar Cross Section
36.964 m², Large (>1 m²)

Expand to show TLE details & history
Last TLE update: 12 hours ago

TLE from 12 hours ago
0 STARLINK-11437
1 62884U 25024F   25303.14494396  .00238723  00000-0  18038-2 0  9991
2 62884  42.9994 248.4852 0001478 247.4089 112.6622 15.70935351 42931
Epoch: 2025-10-30T03:28Z
TLE epoch observation values (Epoch: 2025-10-30T03:28:43.158Z)
Latitude
-0.00003°
Longitude
157.59741°
Altitude
356.377 km
Speed
7.697 km/s
True Right ascension
16h 33m 56s
True Declination
0° 00' 00"
Sunlit
Object was in daylight at epoch
Visualization orbit readout
Latitude
Unknown
Longitude
Unknown
Altitude
Unknown
Speed
Unknown
Apparent Right ascension
Unknown
Apparent Declination
Unknown
Sunlit
N/A
Visualization observer readout
Local Sidereal Time
11:32:55
Azimuth
Unknown
Elevation
Unknown
Doppler factor
Unknown
Orbital elements
Apogee altitude
359.2 km
Perigee altitude
357.209 km
Semi-major axis
6,736.341 km
Eccentricity
0.00015
Inclination
42.9994°
RAAN
248.4852°
Arg. of periapsis
247.4089°
True anomaly
112.67783°
Mean anomaly
112.6622°
Eccentric anomaly
112.67001°
Mean motion
3.92561 °/min
Orbital period
91.71 mins
BSTAR
0.0018038
Loading maneuver chart data...
Computing Atmospheric mass density...
Loading historical data...
Loading historical data...
Loading historical data...
Loading historical data...
Loading historical data...
Loading historical data...
Loading historical data...

Documentation

Showing up to 5 results
|